• In Hungary
  • List of Countries
  • For 7 days
  • Water Temperature
  • Satellite Maps
  • Weather Map
  • News
  • Weather Widgets
  • user-avatar
    Login

    Hourly Weather Guzdek

    Today, 20 October, Saturday

    Time Temperature Precipitation Wind Pressure Humidity
    00:00 +12°C° 0 mm 1 mps 757 mmHg 80%
    01:00 +11°C° 0 mm 0 mps 757 mmHg 81%
    02:00 +11°C° 0 mm 0 mps 757 mmHg 81%
    03:00 +12°C° 0 mm 1 mps 757 mmHg 82%
    04:00 +12°C° 0 mm 1 mps 757 mmHg 82%
    05:00 +12°C° 0.1 mm 1 mps 757 mmHg 83%
    06:00 +12°C° 0.1 mm 1 mps 757 mmHg 84%
    07:00 +12°C° 0 mm 2 mps 757 mmHg 86%
    08:00 +11°C° 0.1 mm 3 mps 757 mmHg 83%
    09:00 +11°C° 0.1 mm 3 mps 758 mmHg 81%
    10:00 +11°C° 0.1 mm 3 mps 758 mmHg 78%
    11:00 +12°C° 0 mm 4 mps 757 mmHg 73%
    12:00 +12°C° 0 mm 4 mps 757 mmHg 68%
    13:00 +13°C° 0 mm 4 mps 757 mmHg 62%
    14:00 +12°C° 0 mm 4 mps 757 mmHg 61%
    15:00 +12°C° 0 mm 4 mps 757 mmHg 59%
    16:00 +11°C° 0 mm 4 mps 757 mmHg 58%
    17:00 +11°C° 0.1 mm 4 mps 757 mmHg 60%
    18:00 +11°C° 0.1 mm 4 mps 758 mmHg 62%
    19:00 +10°C° 0.1 mm 4 mps 758 mmHg 64%
    20:00 +10°C° 0.1 mm 4 mps 758 mmHg 67%
    21:00 +10°C° 0.1 mm 4 mps 758 mmHg 70%
    22:00 +8°C° 0.1 mm 4 mps 758 mmHg 73%
    23:00 +8°C° 0.1 mm 4 mps 758 mmHg 76%

    Tomorrow, 21 October, Sunday

    Time Temperature Precipitation Wind Pressure Humidity
    00:00 +8°C° 0.1 mm 3 mps 758 mmHg 80%
    01:00 +8°C° 0.1 mm 3 mps 758 mmHg 84%
    02:00 +8°C° 0 mm 3 mps 758 mmHg 87%
    03:00 +7°C° 0 mm 2 mps 758 mmHg 90%
    04:00 +6°C° 0 mm 2 mps 758 mmHg 93%
    05:00 +6°C° 0 mm 2 mps 758 mmHg 93%
    06:00 +6°C° 0 mm 2 mps 759 mmHg 94%
    07:00 +7°C° 0 mm 1 mps 759 mmHg 94%
    08:00 +8°C° 0 mm 1 mps 759 mmHg 87%
    09:00 +10°C° 0 mm 1 mps 760 mmHg 79%
    10:00 +11°C° 0 mm 1 mps 760 mmHg 71%
    11:00 +12°C° 0 mm 1 mps 760 mmHg 66%
    12:00 +13°C° 0 mm 1 mps 760 mmHg 62%
    13:00 +14°C° 0 mm 1 mps 759 mmHg 57%
    14:00 +13°C° 0 mm 1 mps 759 mmHg 59%
    15:00 +13°C° 0 mm 1 mps 759 mmHg 60%
    16:00 +13°C° 0 mm 1 mps 759 mmHg 62%
    17:00 +12°C° 0 mm 1 mps 759 mmHg 66%
    18:00 +11°C° 0 mm 1 mps 759 mmHg 69%
    19:00 +9°C° 0 mm 0 mps 759 mmHg 72%
    20:00 +9°C° 0 mm 1 mps 759 mmHg 74%
    21:00 +9°C° 0 mm 1 mps 760 mmHg 75%
    22:00 +9°C° 0 mm 1 mps 760 mmHg 77%
    23:00 +8°C° 0 mm 1 mps 759 mmHg 78%

    Day after tomorrow, 22 October, Monday

    Time Temperature Precipitation Wind Pressure Humidity
    00:00 +8°C° 0 mm 1 mps 759 mmHg 79%
    01:00 +8°C° 0 mm 1 mps 759 mmHg 81%
    02:00 +7°C° 0 mm 1 mps 759 mmHg 82%
    03:00 +7°C° 0 mm 1 mps 759 mmHg 84%
    04:00 +7°C° 0 mm 1 mps 758 mmHg 85%
    05:00 +7°C° 0 mm 1 mps 758 mmHg 86%
    06:00 +6°C° 0 mm 1 mps 758 mmHg 86%
    07:00 +6°C° 0 mm 1 mps 758 mmHg 87%
    08:00 +8°C° 0 mm 1 mps 758 mmHg 79%
    09:00 +9°C° 0 mm 2 mps 758 mmHg 71%
    10:00 +12°C° 0 mm 2 mps 758 mmHg 64%
    11:00 +12°C° 0 mm 2 mps 757 mmHg 60%
    12:00 +12°C° 0 mm 3 mps 757 mmHg 55%
    13:00 +13°C° 0 mm 3 mps 756 mmHg 51%
    14:00 +13°C° 0 mm 3 mps 756 mmHg 54%
    15:00 +12°C° 0 mm 3 mps 756 mmHg 57%
    16:00 +13°C° 0 mm 2 mps 755 mmHg 59%
    17:00 +11°C° 0.3 mm 3 mps 756 mmHg 66%
    18:00 +10°C° 0.3 mm 4 mps 756 mmHg 72%
    19:00 +10°C° 0.3 mm 4 mps 756 mmHg 79%
    20:00 +8°C° 0.5 mm 4 mps 756 mmHg 79%
    21:00 +8°C° 0.5 mm 5 mps 757 mmHg 79%
    22:00 +8°C° 0.5 mm 5 mps 757 mmHg 79%
    23:00 +7°C° 0 mm 5 mps 757 mmHg 80%

    23 October, Tuesday

    Time Temperature Precipitation Wind Pressure Humidity
    00:00 +6°C° 0 mm 4 mps 757 mmHg 81%
    01:00 +5°C° 0 mm 4 mps 757 mmHg 82%
    02:00 +5°C° 0 mm 4 mps 757 mmHg 83%
    03:00 +4°C° 0 mm 4 mps 757 mmHg 84%
    04:00 +4°C° 0 mm 4 mps 757 mmHg 85%
    05:00 +4°C° 0 mm 4 mps 757 mmHg 85%
    06:00 +4°C° 0 mm 4 mps 756 mmHg 86%
    07:00 +4°C° 0 mm 4 mps 756 mmHg 86%
    08:00 +5°C° 0 mm 5 mps 756 mmHg 81%
    09:00 +4°C° 0 mm 6 mps 755 mmHg 75%
    10:00 +5°C° 0 mm 7 mps 754 mmHg 70%
    11:00 +6°C° 0.1 mm 7 mps 753 mmHg 68%
    12:00 +6°C° 0.1 mm 8 mps 752 mmHg 66%
    13:00 +7°C° 0.1 mm 9 mps 751 mmHg 65%
    14:00 +6°C° 0.9 mm 9 mps 750 mmHg 69%
    15:00 +6°C° 0.9 mm 9 mps 749 mmHg 74%
    16:00 +6°C° 0.9 mm 9 mps 748 mmHg 78%
    17:00 +6°C° 1.4 mm 10 mps 746 mmHg 80%
    18:00 +6°C° 1.4 mm 10 mps 745 mmHg 82%
    19:00 +7°C° 1.4 mm 10 mps 744 mmHg 84%
    20:00 +7°C° 1 mm 11 mps 743 mmHg 84%
    21:00 +8°C° 1 mm 11 mps 742 mmHg 84%
    22:00 +8°C° 1 mm 11 mps 741 mmHg 85%
    23:00 +9°C° 1.5 mm 11 mps 740 mmHg 85%

    24 October, Wednesday

    Time Temperature Precipitation Wind Pressure Humidity
    00:00 +9°C° 1.5 mm 11 mps 740 mmHg 85%
    01:00 +9°C° 1.5 mm 10 mps 739 mmHg 85%
    02:00 +9°C° 0.6 mm 10 mps 739 mmHg 82%
    03:00 +8°C° 0.6 mm 10 mps 740 mmHg 78%
    04:00 +8°C° 0.6 mm 10 mps 740 mmHg 75%
    05:00 +7°C° 0.1 mm 10 mps 741 mmHg 72%
    06:00 +6°C° 0.1 mm 9 mps 742 mmHg 69%
    07:00 +5°C° 0.1 mm 8 mps 743 mmHg 66%
    08:00 +6°C° 0 mm 9 mps 743 mmHg 60%
    09:00 +6°C° 0 mm 9 mps 744 mmHg 53%
    10:00 +6°C° 0 mm 10 mps 745 mmHg 47%
    11:00 +7°C° 0 mm 10 mps 745 mmHg 45%
    12:00 +7°C° 0 mm 10 mps 745 mmHg 43%
    13:00 +7°C° 0 mm 10 mps 745 mmHg 41%
    14:00 +7°C° 0 mm 9 mps 746 mmHg 43%
    15:00 +6°C° 0 mm 7 mps 746 mmHg 44%
    16:00 +7°C° 0 mm 6 mps 747 mmHg 46%
    17:00 +5°C° 0 mm 6 mps 747 mmHg 48%
    18:00 +4°C° 0 mm 6 mps 747 mmHg 49%
    19:00 +5°C° 0 mm 5 mps 748 mmHg 51%
    20:00 +5°C° 0 mm 5 mps 748 mmHg 54%
    21:00 +3°C° 0 mm 5 mps 748 mmHg 57%
    22:00 +3°C° 0 mm 5 mps 749 mmHg 60%
    23:00 +3°C° 0 mm 5 mps 749 mmHg 65%

    25 October, Thursday

    Time Temperature Precipitation Wind Pressure Humidity
    00:00 +3°C° 0 mm 5 mps 749 mmHg 70%
    01:00 +3°C° 0 mm 5 mps 749 mmHg 76%
    02:00 +3°C° 0 mm 4 mps 749 mmHg 79%
    03:00 +3°C° 0 mm 4 mps 749 mmHg 82%
    04:00 +3°C° 0 mm 4 mps 749 mmHg 85%
    05:00 +4°C° 0.1 mm 4 mps 748 mmHg 87%
    06:00 +4°C° 0.1 mm 4 mps 748 mmHg 88%
    07:00 +5°C° 0.1 mm 4 mps 748 mmHg 89%
    08:00 +7°C° 0.5 mm 5 mps 747 mmHg 89%
    09:00 +8°C° 0.5 mm 6 mps 747 mmHg 89%
    10:00 +9°C° 0.5 mm 8 mps 747 mmHg 89%
    11:00 +10°C° 0.1 mm 8 mps 746 mmHg 83%
    12:00 +10°C° 0.1 mm 9 mps 746 mmHg 78%
    13:00 +10°C° 0.1 mm 9 mps 746 mmHg 73%
    14:00 +10°C° 0.1 mm 9 mps 746 mmHg 75%
    15:00 +9°C° 0.1 mm 8 mps 746 mmHg 77%
    16:00 +9°C° 0.1 mm 8 mps 746 mmHg 79%
    17:00 +9°C° 0.1 mm 8 mps 746 mmHg 79%
    18:00 +9°C° 0.1 mm 8 mps 746 mmHg 80%
    19:00 +9°C° 0.1 mm 8 mps 746 mmHg 80%
    20:00 +9°C° 0.1 mm 8 mps 746 mmHg 81%
    21:00 +9°C° 0.1 mm 8 mps 746 mmHg 81%
    22:00 +9°C° 0.1 mm 8 mps 746 mmHg 81%
    23:00 +9°C° 0.1 mm 8 mps 746 mmHg 82%
    Show more